Regional Weather Roundup
Issued by NWS Wakefield, VA

Home | Current Version | Previous Version | Graphics & Text | Print | Product List | Glossary On
Versions: 1 2 3 4 5 6 7 8 9 10 11 12 13 14 15 16 17 18 19 20 21 22 23 24 25 26 27 28 29 30 31 32 33 34 35 36 37 38 39 40 41 42 43 44 45 46 47 48 49 50
000
ASUS41 KAKQ 291110
RWRAKQ

REGIONAL WEATHER ROUNDUP
NATIONAL WEATHER SERVICE WAKEFIELD VA
700 AM EDT FRI AUG 29 2014

Note: "fair" indicates few or no clouds below 12,000 feet with no
significant weather and/or obstructions to visibility. * = Denotes
station may not report precipitation (e.g., rain,snow,etc.),
thunder or fog.

VAZ042-051-052>054-056-291200-
NORTHERN VIRGINIA

CITY           SKY/WX    TMP DP  RH WIND       PRES   REMARKS
WASH NATIONAL  PTCLDY    65  50  58 N8        30.18R
DULLES         PTCLDY    54  52  93 CALM      30.19R
FORT BELVOIR   CLEAR     56  54  93 CALM      30.18R
QUANTICO       PTCLDY    61  55  81 NW8       30.19R
FREDERICKSBRG* CLEAR     61  57  85 N5        30.17R
STAFFORD*      CLEAR     55  55 100 N3        30.21R
WARRENTON      CLEAR     53  53 100 CALM      30.18R
CULPEPER*      CLEAR    N/A N/A N/A CALM      30.19R
MANASSAS*      CLEAR     55  55 100 CALM      30.18R
LEESBURG*      CLEAR     55  55 100 CALM      30.20R
WINCHESTER     CLEAR     54  50  87 CALM      30.20R
$$

VAZ048-049-060>072-079>083-291200-
CENTRAL AND SOUTH CENTRAL VIRGINIA...AND NORTH CENTRAL NORTH CAROLINA

CITY           SKY/WX    TMP DP  RH WIND       PRES   REMARKS
RICHMOND       MOCLDY    66  58  75 N9        30.14R
CHESTERFIELD*  CLOUDY    68  52  56 CALM      30.15R
PETERSBURG*    PTCLDY    67  58  72 N5        30.14R
HANOVER        CLEAR     61  58  90 CALM      30.17R
TAPPAHANNOCK*  CLEAR     62  56  79 CALM      30.16R
CHARLOTTSVILLE CLEAR     60  54  80 N5        30.18R
ORANGE*        MOCLDY    59  54  82 N5        30.20R
LOUISA*        CLEAR     61  55  82 N5        30.16R
FARMVILLE*     CLOUDY    63  63 100 CALM      30.14R
SOUTH HILL*    CLOUDY    70  66  88 N3        30.18R
ROANOKE RAPIDS CLOUDY    68  66  94 N5        30.10R
RALEIGH        CLOUDY    73  69  87 NE8       30.09R FOG
$$

VAZ088>098-291200-
SOUTHEAST VIRGINIA

CITY           SKY/WX    TMP DP  RH WIND       PRES   REMARKS
NORFOLK        CLOUDY    74  65  73 E6        30.10R
VIRGINIA BEACH MOCLDY    74  62  66 E7        30.10R
NORFOLK NAVAL  CLOUDY    76  65  68 E10       30.12R
WEST POINT*    PTCLDY    66  59  77 N3        30.15R
NEWPORT NEWS   PTCLDY    71  59  65 N6        30.12R
LANGLEY AFB    CLOUDY    73  62  68 NE8       30.11R
FORT EUSTIS    PTCLDY    71  57  61 NE3       30.11R
WILLIAMSBURG*  MOCLDY    70  64  83 CALM      30.13R
FRANKLIN*      MOCLDY    70  66  88 CALM      30.11R
WAKEFIELD      CLEAR     69  64  84 CALM      30.12R
$$

VAZ020-022-025-037-045-291200-
WESTERN AND SOUTHWEST VIRGINIA

CITY           SKY/WX    TMP DP  RH WIND       PRES   REMARKS
STAUNTON*      CLEAR     58  55  88 CALM      30.21R
HOT SPRINGS VA CLEAR     54  48  81 E6        30.27R
LYNCHBURG      CLEAR     63  54  72 N8        30.18R
DANVILLE       CLOUDY    70  60  70 NE9       30.13R
MARTINSVILLE   CLOUDY    69  60  73 N6        30.18R
ROANOKE        CLOUDY    66  55  67 CALM      30.19R
BLACKSBURG     PTCLDY    64  55  72 E3        30.21R
DUBLIN*        CLOUDY    63  63 100 CALM      30.21R FOG
MARION*        CLEAR    N/A N/A N/A E5        30.22R FOG
HILLSVILLE*    CLOUDY    64  63  96 CALM      30.21R
RICHLANDS*     SUNNY     70  65  84 SE5       30.17R
WISE*          CLEAR     64  64 100 CALM      30.17R
ABINGDON*      CLEAR     69  65  88 E5        30.14R
$$

MDZ021>025-VAZ099-100-291200-
SOUTHERN MARYLAND AND THE DELMARVA PENINSULA

CITY           SKY/WX    TMP DP  RH WIND       PRES   REMARKS
PATUXENT RIVER PTCLDY    63  52  67 NE9       30.16R
BAY BRIDGE APT   N/A     63  50  63 NE5       30.17R
LEONARDTOWN    CLEAR     61  52  72 CALM      30.18R
DOVER          CLEAR     56  53  88 NW3       30.14R
GEORGETOWN     CLEAR     58  52  80 CALM      30.16R
EASTON         PTCLDY    55  54  94 CALM      30.20R
CAMBRIDGE      CLEAR     61  52  72 N5        30.16R
SALISBURY      CLEAR     59  53  80 CALM      30.15R
OCEAN CITY     CLEAR     59  55  87 NW6       30.14R
WALLOPS ISLAND CLEAR     63  56  78 N7        30.14R
ACCOMACK*      NOT AVBL
$$

NCZ012>017-030>032-291200-
EASTERN NORTH CAROLINA

CITY           SKY/WX    TMP DP  RH WIND       PRES   REMARKS
ELIZABETH CITY LGT RAIN  74  71  91 E8        30.09R
AHOSKIE*       CLEAR     67  66  94 N8        30.09R
EDENTON*       CLOUDY    72  70  94 NE5       30.08R
CURRITUCK*     CLOUDY    75  69  81 E6        30.10R
KILL DEVIL HLS CLOUDY    75  71  86 NE3       30.08R
MANTEO         CLOUDY    74  69  85 NE9       30.09R
CAPE HATTERAS  MOCLDY    75  72  90 W3        30.07R
GOLDSBORO      PTCLDY    73  72  98 SE1       30.06R
WASHINGTON     MOCLDY    72  71  96 NE3       30.07R
GREENVILLE     CLOUDY    73  72  94 NE6       30.09R
NEW BERN       MOCLDY    74  68  81 SW5       30.08R
WILMINGTON     CLEAR     72  68  87 SW5       30.07R
$$

VAZ048-291200-
ELSEWHERE

CITY           SKY/WX    TMP DP  RH WIND       PRES   REMARKS
HARRISBURG PA  MOCLDY    57  51  80 N5        30.18R
BALTIMORE      PTCLDY    58  51  78 VRB5      30.17R
ANNAPOLIS      CLEAR     65  55  70 NW6       30.17R
ANDREWS AFB    CLEAR     55  49  82 N5        30.18R
WILMINGTON DE  CLEAR     56  50  80 N6        30.17R
PHILADELPHIA   MOCLDY    62  50  64 N7        30.17R
WILDWOOD NJ*   PTCLDY    57  48  72 N6        30.15S
ATLANTIC CITY  PTCLDY    54  51  90 NW3       30.14R
HENDERSON NC   CLOUDY    70  65  85 NE10      30.12R
GREENSBORO     MOCLDY    70  65  84 NE8       30.12R
ROCKY MOUNT    PTCLDY    72  69  90 NE5       30.09R
FAYETTEVILLE   PTCLDY    71  66  84 CALM      30.07R
CHARLOTTE      MOCLDY    71  64  78 CALM      30.09R
$$

VAZ100-291200-
MARINE

STATION/POSITION TIME  TEMP    WIND        PRES    WAVE   SWELL
                       AIR SEA DIR/SP/G            HT/PER HT/PER
                 (UTC) (F)     (DEG/KT/KT) (MB)    (FT/S) (FT/S)
44066 TX TWR #4  1100   70 72   40/ 12/ 14 1019.1R   5/11   3/11
CAPE MAY NJ      1100   63 78   40/  3/  5 1020.2R
LEWES DE         1100   67 74   30/ 11/ 13 1020.4R
15NM E FENWICK I 1100   69 73              1020.0R   4/10
OCEAN-CITY-INLET 1100   68 75   30/  6/ 12 1020.0R
WACHAPREAGUE VA  1100   64 79   20/  4/  6 1020.1R
THOMAS POINT MD  1100   68 78   60/ 12/ 13 1022.5R
GOOSES REEF MD   1100   68      60/ 12/ 14 1021.5R
COVE POINT MD    1100   66      50/ 11/ 12 1021.1R
SOLOMONS ISLAND  1100      79                N/A
BISHOPS HEAD MD  1100   66 76   30/ 12/ 15 1020.4R
PINEY POINT MD   1100           60/  7/  9   N/A
POTOMAC MD       1100   70      50/ 12/ 16 1019.9R
CAMBRIDGE MD     1100   64 78   10/  8/ 12 1020.9R
LEWISETTA VA     1100   70 78   60/  9/ 12 1020.6R
RAPPAHANNOCK LGT 1100           40/ 15/ 16 1020.5R
STINGRAY PT      1100   73      70/ 14/ 17   N/A
YORK RVR RNG VA  1100   75      70/ 12/ 14 1019.3R
YORKTOWN VA      1100   75 79   50/ 11/ 12 1019.5R
JAMESTOWN VA     1100   70      60/  4/  6   N/A
DOMINION TERM VA 1100   75     360/  2/  5 1019.4R
KIPTOPEKE VA     1100      80   40/  5/  6   N/A
CHES BAY BRIDGE  1100   75 78   50/ 10/ 12 1018.9R
CAPE HENRY VA    1100   75      50/ 12/ 13 1018.2R
CHESAPEAKE LGHT  1000   75      60/ 12/ 13 1019.5R
WILLOUBY STN VA  1100   75      50/ 10/ 11 1018.2R
S CRANEY ISL VA  1100           40/  6/  7 1019.0R
CAPE HENRY BUOY  1100      77                N/A     3/ 9   2/11
1ST LANDING BUOY 1100   76      70/ 10/ 14 1018.9R
CAPE CHARLES BUO 1100      77                N/A     3/10   2/10
OFFSHORE WE BUOY 1100      76                N/A     4/ 8   3/ 8
64NM E OF VA BCH 1100   76 75   30/ 10/ 12 1018.7R   4/ 9   3/ 9
DUCK PIER NC     1100   76 78   60/ 14/ 15 1018.3R
44056 DUCK FRF   1100                        N/A     3/11   2/11
OREGON INLET NC  1100   76 79   50/ 10/ 13 1018.2R
HATTERAS NC      1100   78 81  240/  5/  6 1018.5R
DIAMOND SHLS NC  1100   80     270/  6/  8 1018.0R   3/ 8   3/ 8
CAPE LOOKOUT NC  1000   79     240/  7/ 11 1017.3R
$$


USA.gov is the U.S. government's official web portal to all federal, state and local government web resources and services.